This demonstration page uses our WeatherBlox Daily Observations layout. Learn more.

Left ArrowRight Arrow

38.89511, -77.03637

Hourly Observations for May 20, 2019

Temp ( °F °C ) Dew Point ( °F °C ) Humidity (%) Winds ( mph kmh ) Pressure ( in mb ) Visibility ( mi km ) Precip ( " mm )
12:52 am 00:52 Mostly Cloudy 74 23.3 64 17.8 71 71 S 10 17 29.90 1013 10 16 0.00 0.00
1:52 am 01:52 Cloudy 76 24.4 64 17.8 67 67 S 9 15 29.91 1013 10 16 0.00 0.00
2:52 am 02:52 Cloudy 75 23.9 64 17.8 69 69 S 10 17 29.89 1012 10 16 0.00 0.00
3:52 am 03:52 Mostly Cloudy 75 23.9 63 17.2 66 66 SSW 10 17 29.88 1012 10 16 0.00 0.00
4:52 am 04:52 Mostly Cloudy 75 23.9 63 17.2 66 66 SSW 14 22 29.88 1012 10 16 0.00 0.00
5:52 am 05:52 Cloudy 74 23.3 63 17.2 69 69 SSW 12 19 29.89 1012 10 16 0.00 0.00
6:52 am 06:52 Mostly Cloudy 74 23.3 63 17.2 69 69 SSW 12 19 29.91 1013 10 16 0.00 0.00
7:52 am 07:52 Mostly Cloudy 76 24.4 65 18.3 69 69 SSW 9 15 29.91 1013 10 16 0.00 0.00
8:52 am 08:52 Partly Cloudy 78 25.6 65 18.3 64 64 SSW 7 11 29.90 1013 10 16 0.00 0.00
9:52 am 09:52 Partly Cloudy 78 25.6 67 19.4 69 69 S 9 15 29.89 1012 10 16 0.00 0.00
10:52 am 10:52 Mostly Cloudy 79 26.1 67 19.4 67 67 S 10 17 29.88 1012 10 16 0.00 0.00
11:52 am 11:52 Partly Cloudy 82 27.8 68 20 63 63 S 14 22 29.87 1012 10 16 0.00 0.00
12:52 pm 12:52 Partly Cloudy 87 30.6 61 16.1 42 42 WSW 18 30 29.86 1011 10 16 0.00 0.00
1:52 pm 13:52 Partly Cloudy 87 30.6 61 16.1 42 42 SW 15 24 29.83 1010 10 16 0.00 0.00
2:52 pm 14:52 Partly Cloudy 89 31.7 61 16.1 39 39 WSW 17 28 29.81 1009 10 16 0.00 0.00
3:42 pm 15:42 Mostly Cloudy 89 31.7 61 16.1 39 39 SSW 21 33 29.78 1008 10 16 0.00 0.00
3:52 pm 15:52 Mostly Cloudy 90 32.2 61 16.1 38 38 W 17 28 29.78 1009 10 16 0.00 0.00
3:56 pm 15:56 Mostly Cloudy 90 32.2 60 15.6 37 37 WSW 17 28 29.78 1008 10 16 0.00 0.00
4:52 pm 16:52 Mostly Cloudy 87 30.6 64 17.8 46 46 S 14 22 29.77 1008 10 16 0.00 0.00
5:52 pm 17:52 Mostly Cloudy 85 29.4 65 18.3 51 51 SSW 15 24 29.77 1008 10 16 0.00 0.00
6:52 pm 18:52 Mostly Cloudy 85 29.4 65 18.3 51 51 SW 7 11 29.78 1008 10 16 0.00 0.03
7:52 pm 19:52 Mostly Cloudy 83 28.3 57 13.9 41 41 NW 13 20 29.79 1009 10 16 0.00 0.00
8:52 pm 20:52 Mostly Cloudy 83 28.3 51 10.6 33 33 WNW 8 13 29.81 1010 10 16 0.00 0.00
9:52 pm 21:52 Mostly Cloudy 80 26.7 51 10.6 37 37 NW 12 19 29.84 1011 10 16 0.00 0.00
10:52 pm 22:52 Partly Cloudy 78 25.6 51 10.6 39 39 WNW 7 11 29.85 1011 10 16 0.00 0.00
11:52 pm 23:52 Partly Cloudy 77 25 51 10.6 40 40 NW 18 30 29.86 1011 10 16 0.00 0.00

Powered by AerisWeather